Location: Veytaux
(46.4185°N, 6.9320°E)
Time: 08:42:01
(UTC+00:00)

COSMOS 2428 - Pass Details

Date: 27 May 2022
Orbit: 846 x 855 km, 70.9° (Epoch: 02 July)

Event Time Altitude Azimuth Distance (km) Brightness Sun altitude
Exits shadow 00:59:56 12° 262° (W) 2,344 4.7 -19.3°
Maximum altitude 01:04:05 25° 313° (NW) 1,662 4.4 -19.0°
Drops below altitude 10° 01:08:42 10° 7° (N) 2,480 6.3 -18.7°
Sets 01:11:37 0° 21° (NNE) 3,419 7.6 -18.5°
